(°C)
10°
10°
11°
11°
11°
11°
12°
(°C)
V
V
VJV
VJV
JV
JV
VJV
(km/h)
19-23
19-24
20-25
21-27
21-29
21-32
20-33
(mm)
3
1
0
0
0
0
0
(%)
25
25
8
8
9
38
46

Výška Slnka nad obzorom

/ 1.6°
sun-icon
UV 2
06:22
18:41
Zmenšujúci sa polmesiac (198°)
19:26
07:35

Správy METAR pre lokalitu 53.5°S 50.15°V (UWWW)

Čas Podmienky Teplota/
Rosný bod
Vietor Viditeľnosť Počasie Oblaky Tlak Zmeniť Nespracované
VFR 10°C / 4°C 140º 14kt >10km Light Rain 1.00mm precipitation Vertical Visibility of 0ft. 1014 No Significant change. Runway 15: Damp, 51-100% contamination with <1mm, friction coefficient 0.55. UWWW 220200Z 14007MPS 9999 -RA SCT033 10/04 Q1014 R15/190055 NOSIG RMK QFE749/0999
VFR 10°C / 3°C 150º 14kt 9000m Light Showers Rain 3.00mm precipitation Vertical Visibility of 0ft. 1015 No Significant change. Runway 15: Damp, 51-100% contamination with <1mm, friction coefficient 0.55. UWWW 220130Z 15007MPS 9000 -SHRA SCT033CB 10/03 Q1015 R15/190055 NOSIG RMK QFE749/0999
VFR 11°C / 0°C 100º 10kt >10km - Scattered Clouds 3300ft 1014 No Significant change. Runway 15: Damp, 51-100% contamination with <1mm, friction coefficient 0.55. UWWW 220100Z 10005MPS 9999 SCT033CB 11/00 Q1014 R15/190055 NOSIG RMK QFE749/0999
VFR 9°C / 1°C 100º 8kt >10km - Scattered Clouds 3300ft 1014 No Significant change. Runway 15: Damp, 51-100% contamination with <1mm, friction coefficient 0.55. UWWW 220030Z 10004MPS 9999 SCT033 09/01 Q1014 R15/190055 NOSIG RMK QFE749/0999
VFR 9°C / 0°C 80º 10kt >10km - Scattered Clouds 3300ft 1015 No Significant change. Runway 15: Damp, 51-100% contamination with <1mm, friction coefficient 0.55. UWWW 220000Z 08005MPS 9999 SCT033 09/00 Q1015 R15/190055 NOSIG RMK QFE749/0999
VFR 9°C / 0°C 80º 10kt >10km - Scattered Clouds 3300ft 1015 No Significant change. Runway 15: Damp, 51-100% contamination with <1mm, friction coefficient 0.55. UWWW 212330Z 08005MPS 9999 SCT033 09/00 Q1015 R15/190055 NOSIG RMK QFE749/0999
VFR 8°C / 0°C 90º 10kt >10km - Clouds and Visibility OK 1015 No Significant change. Runway 15: Damp, 51-100% contamination with <1mm, friction coefficient 0.55. UWWW 212300Z 09005MPS CAVOK 08/00 Q1015 R15/190055 NOSIG RMK QFE749/0999
VFR 8°C / 0°C 90º 10kt >10km - Clouds and Visibility OK 1015 No Significant change. Runway 15: Damp, 51-100% contamination with <1mm, friction coefficient 0.55. UWWW 212230Z 09005MPS CAVOK 08/00 Q1015 R15/190055 NOSIG RMK QFE750/1000
VFR 7°C / 0°C 80º 10kt >10km - Clouds and Visibility OK 1015 No Significant change. Runway 15: Damp, 51-100% contamination with <1mm, friction coefficient 0.55. UWWW 212200Z 08005MPS CAVOK 07/00 Q1015 R15/190055 NOSIG RMK QFE750/1000
VFR 7°C / 0°C 70º 8kt >10km - Clouds and Visibility OK 1015 No Significant change. Runway 15: Damp, 51-100% contamination with <1mm, friction coefficient 0.55. UWWW 212130Z 07004MPS CAVOK 07/00 Q1015 R15/190055 NOSIG RMK QFE750/1000
VFR 8°C / 0°C 60º variable 040º to 150º 6kt >10km - Clouds and Visibility OK 1015 No Significant change. Runway 15: Damp, 51-100% contamination with <1mm, friction coefficient 0.55. UWWW 212100Z 06003MPS 040V150 CAVOK 08/00 Q1015 R15/190055 NOSIG RMK QFE750/1000
VFR 9°C / 0°C 90º 12kt >10km - Scattered Clouds 3300ft 1016 No Significant change. Runway 15: Damp, 51-100% contamination with <1mm, friction coefficient 0.55. UWWW 212030Z 09006MPS 9999 SCT033 09/00 Q1016 R15/190055 NOSIG RMK QFE750/1000
VFR 10°C / 0°C 80º 8kt >10km - Scattered Clouds 3300ft 1016 No Significant change. Runway 15: Damp, 51-100% contamination with <1mm, friction coefficient 0.55. UWWW 212000Z 08004MPS 9999 SCT033 10/00 Q1016 R15/190055 NOSIG RMK QFE750/1001
VFR 10°C / 1°C 80º 8kt >10km - Scattered Clouds 3300ft 1016 No Significant change. Runway 15: Damp, 51-100% contamination with <1mm, friction coefficient 0.55. UWWW 211930Z 08004MPS 9999 SCT033 10/01 Q1016 R15/190055 NOSIG RMK QFE751/1001
VFR 9°C / 1°C 80º 8kt >10km - Scattered Clouds 3300ft 1017 No Significant change. Runway 15: Damp, 51-100% contamination with <1mm, friction coefficient 0.55. UWWW 211900Z 08004MPS 9999 SCT033 09/01 Q1017 R15/190055 NOSIG RMK QFE751/1001
VFR 10°C / 2°C 80º 10kt >10km - Scattered Clouds 3300ft 1017 No Significant change. Runway 15: Damp, 51-100% contamination with <1mm, friction coefficient 0.55. UWWW 211830Z 08005MPS 9999 SCT033 10/02 Q1017 R15/190055 NOSIG RMK QFE751/1002
VFR 9°C / 2°C 80º 10kt >10km - Scattered Clouds 3300ft 1017 No Significant change. Runway 15: Damp, 51-100% contamination with <1mm, friction coefficient 0.55. UWWW 211800Z 08005MPS 9999 SCT033 09/02 Q1017 R15/190055 NOSIG RMK QFE751/1002
VFR 9°C / 3°C 80º variable 060º to 120º 10kt >10km - Scattered Clouds 3300ft 1017 No Significant change. Runway 15: Damp, 51-100% contamination with <1mm, friction coefficient 0.55. UWWW 211730Z 08005MPS 060V120 9999 SCT033 09/03 Q1017 R15/190055 NOSIG RMK QFE751/1002
VFR 10°C / 3°C 80º 12kt >10km - Scattered Clouds 3300ft 1018 No Significant change. Runway 15: Damp, 51-100% contamination with <1mm, friction coefficient 0.55. UWWW 211700Z 08006MPS 9999 SCT033 10/03 Q1018 R15/190055 NOSIG RMK QFE752/1002
VFR 10°C / 3°C 70º 10kt >10km - Scattered Clouds 3300ft 1018 No Significant change. Runway 15: Damp, 51-100% contamination with <1mm, friction coefficient 0.55. UWWW 211630Z 07005MPS 9999 SCT033 10/03 Q1018 R15/190055 NOSIG RMK QFE752/1002
VFR 10°C / 3°C 70º variable 060º to 120º 10kt >10km - Scattered Clouds 3300ft 1018 No Significant change. Runway 15: Damp, 51-100% contamination with <1mm, friction coefficient 0.55. UWWW 211600Z 07005MPS 060V120 9999 SCT033 10/03 Q1018 R15/190055 NOSIG RMK QFE752/1003
VFR 10°C / 3°C 80º 10kt >10km - Scattered Clouds 3300ft 1018 No Significant change. Runway 15: Damp, 51-100% contamination with <1mm, friction coefficient 0.55. UWWW 211530Z 08005MPS 9999 SCT033 10/03 Q1018 R15/190055 NOSIG RMK QFE752/1003
VFR 10°C / 3°C 70º 12kt >10km Light Rain 1.00mm precipitation Vertical Visibility of 0ft. 1018 No Significant change. Runway 15: Damp, 51-100% contamination with <1mm, friction coefficient 0.55. UWWW 211500Z 07006MPS 9999 -RA SCT033 10/03 Q1018 R15/190055 NOSIG RMK QFE752/1003
VFR 11°C / 3°C 80º 10kt >10km - Scattered Clouds 3300ft 1018 No Significant change. Runway 15: Damp, 51-100% contamination with <1mm, friction coefficient 0.55. UWWW 211430Z 08005MPS 9999 SCT033 11/03 Q1018 R15/190055 NOSIG RMK QFE752/1003

VFR

10°C / 4°C

[Viac]
Vietor 140º 14kt
Viditeľnosť >10km
Počasie Light Rain 1.00mm precipitation
Oblaky Vertical Visibility of 0ft.
Tlak 1014
Zmeniť No Significant change. Runway 15: Damp, 51-100% contamination with <1mm, friction coefficient 0.55.
Nespracované UWWW 220200Z 14007MPS 9999 -RA SCT033 10/04 Q1014 R15/190055 NOSIG RMK QFE749/0999

VFR

10°C / 3°C

[Viac]
Vietor 150º 14kt
Viditeľnosť 9000m
Počasie Light Showers Rain 3.00mm precipitation
Oblaky Vertical Visibility of 0ft.
Tlak 1015
Zmeniť No Significant change. Runway 15: Damp, 51-100% contamination with <1mm, friction coefficient 0.55.
Nespracované UWWW 220130Z 15007MPS 9000 -SHRA SCT033CB 10/03 Q1015 R15/190055 NOSIG RMK QFE749/0999

VFR

11°C / 0°C

[Viac]
Vietor 100º 10kt
Viditeľnosť >10km
Počasie -
Oblaky Scattered Clouds 3300ft
Tlak 1014
Zmeniť No Significant change. Runway 15: Damp, 51-100% contamination with <1mm, friction coefficient 0.55.
Nespracované UWWW 220100Z 10005MPS 9999 SCT033CB 11/00 Q1014 R15/190055 NOSIG RMK QFE749/0999

VFR

9°C / 1°C

[Viac]
Vietor 100º 8kt
Viditeľnosť >10km
Počasie -
Oblaky Scattered Clouds 3300ft
Tlak 1014
Zmeniť No Significant change. Runway 15: Damp, 51-100% contamination with <1mm, friction coefficient 0.55.
Nespracované UWWW 220030Z 10004MPS 9999 SCT033 09/01 Q1014 R15/190055 NOSIG RMK QFE749/0999

VFR

9°C / 0°C

[Viac]
Vietor 80º 10kt
Viditeľnosť >10km
Počasie -
Oblaky Scattered Clouds 3300ft
Tlak 1015
Zmeniť No Significant change. Runway 15: Damp, 51-100% contamination with <1mm, friction coefficient 0.55.
Nespracované UWWW 220000Z 08005MPS 9999 SCT033 09/00 Q1015 R15/190055 NOSIG RMK QFE749/0999

VFR

9°C / 0°C

[Viac]
Vietor 80º 10kt
Viditeľnosť >10km
Počasie -
Oblaky Scattered Clouds 3300ft
Tlak 1015
Zmeniť No Significant change. Runway 15: Damp, 51-100% contamination with <1mm, friction coefficient 0.55.
Nespracované UWWW 212330Z 08005MPS 9999 SCT033 09/00 Q1015 R15/190055 NOSIG RMK QFE749/0999

VFR

8°C / 0°C

[Viac]
Vietor 90º 10kt
Viditeľnosť >10km
Počasie -
Oblaky Clouds and Visibility OK
Tlak 1015
Zmeniť No Significant change. Runway 15: Damp, 51-100% contamination with <1mm, friction coefficient 0.55.
Nespracované UWWW 212300Z 09005MPS CAVOK 08/00 Q1015 R15/190055 NOSIG RMK QFE749/0999

VFR

8°C / 0°C

[Viac]
Vietor 90º 10kt
Viditeľnosť >10km
Počasie -
Oblaky Clouds and Visibility OK
Tlak 1015
Zmeniť No Significant change. Runway 15: Damp, 51-100% contamination with <1mm, friction coefficient 0.55.
Nespracované UWWW 212230Z 09005MPS CAVOK 08/00 Q1015 R15/190055 NOSIG RMK QFE750/1000

VFR

7°C / 0°C

[Viac]
Vietor 80º 10kt
Viditeľnosť >10km
Počasie -
Oblaky Clouds and Visibility OK
Tlak 1015
Zmeniť No Significant change. Runway 15: Damp, 51-100% contamination with <1mm, friction coefficient 0.55.
Nespracované UWWW 212200Z 08005MPS CAVOK 07/00 Q1015 R15/190055 NOSIG RMK QFE750/1000

VFR

7°C / 0°C

[Viac]
Vietor 70º 8kt
Viditeľnosť >10km
Počasie -
Oblaky Clouds and Visibility OK
Tlak 1015
Zmeniť No Significant change. Runway 15: Damp, 51-100% contamination with <1mm, friction coefficient 0.55.
Nespracované UWWW 212130Z 07004MPS CAVOK 07/00 Q1015 R15/190055 NOSIG RMK QFE750/1000

VFR

8°C / 0°C

[Viac]
Vietor 60º variable 040º to 150º 6kt
Viditeľnosť >10km
Počasie -
Oblaky Clouds and Visibility OK
Tlak 1015
Zmeniť No Significant change. Runway 15: Damp, 51-100% contamination with <1mm, friction coefficient 0.55.
Nespracované UWWW 212100Z 06003MPS 040V150 CAVOK 08/00 Q1015 R15/190055 NOSIG RMK QFE750/1000

VFR

9°C / 0°C

[Viac]
Vietor 90º 12kt
Viditeľnosť >10km
Počasie -
Oblaky Scattered Clouds 3300ft
Tlak 1016
Zmeniť No Significant change. Runway 15: Damp, 51-100% contamination with <1mm, friction coefficient 0.55.
Nespracované UWWW 212030Z 09006MPS 9999 SCT033 09/00 Q1016 R15/190055 NOSIG RMK QFE750/1000

VFR

10°C / 0°C

[Viac]
Vietor 80º 8kt
Viditeľnosť >10km
Počasie -
Oblaky Scattered Clouds 3300ft
Tlak 1016
Zmeniť No Significant change. Runway 15: Damp, 51-100% contamination with <1mm, friction coefficient 0.55.
Nespracované UWWW 212000Z 08004MPS 9999 SCT033 10/00 Q1016 R15/190055 NOSIG RMK QFE750/1001

VFR

10°C / 1°C

[Viac]
Vietor 80º 8kt
Viditeľnosť >10km
Počasie -
Oblaky Scattered Clouds 3300ft
Tlak 1016
Zmeniť No Significant change. Runway 15: Damp, 51-100% contamination with <1mm, friction coefficient 0.55.
Nespracované UWWW 211930Z 08004MPS 9999 SCT033 10/01 Q1016 R15/190055 NOSIG RMK QFE751/1001

VFR

9°C / 1°C

[Viac]
Vietor 80º 8kt
Viditeľnosť >10km
Počasie -
Oblaky Scattered Clouds 3300ft
Tlak 1017
Zmeniť No Significant change. Runway 15: Damp, 51-100% contamination with <1mm, friction coefficient 0.55.
Nespracované UWWW 211900Z 08004MPS 9999 SCT033 09/01 Q1017 R15/190055 NOSIG RMK QFE751/1001

VFR

10°C / 2°C

[Viac]
Vietor 80º 10kt
Viditeľnosť >10km
Počasie -
Oblaky Scattered Clouds 3300ft
Tlak 1017
Zmeniť No Significant change. Runway 15: Damp, 51-100% contamination with <1mm, friction coefficient 0.55.
Nespracované UWWW 211830Z 08005MPS 9999 SCT033 10/02 Q1017 R15/190055 NOSIG RMK QFE751/1002

VFR

9°C / 2°C

[Viac]
Vietor 80º 10kt
Viditeľnosť >10km
Počasie -
Oblaky Scattered Clouds 3300ft
Tlak 1017
Zmeniť No Significant change. Runway 15: Damp, 51-100% contamination with <1mm, friction coefficient 0.55.
Nespracované UWWW 211800Z 08005MPS 9999 SCT033 09/02 Q1017 R15/190055 NOSIG RMK QFE751/1002

VFR

9°C / 3°C

[Viac]
Vietor 80º variable 060º to 120º 10kt
Viditeľnosť >10km
Počasie -
Oblaky Scattered Clouds 3300ft
Tlak 1017
Zmeniť No Significant change. Runway 15: Damp, 51-100% contamination with <1mm, friction coefficient 0.55.
Nespracované UWWW 211730Z 08005MPS 060V120 9999 SCT033 09/03 Q1017 R15/190055 NOSIG RMK QFE751/1002

VFR

10°C / 3°C

[Viac]
Vietor 80º 12kt
Viditeľnosť >10km
Počasie -
Oblaky Scattered Clouds 3300ft
Tlak 1018
Zmeniť No Significant change. Runway 15: Damp, 51-100% contamination with <1mm, friction coefficient 0.55.
Nespracované UWWW 211700Z 08006MPS 9999 SCT033 10/03 Q1018 R15/190055 NOSIG RMK QFE752/1002

VFR

10°C / 3°C

[Viac]
Vietor 70º 10kt
Viditeľnosť >10km
Počasie -
Oblaky Scattered Clouds 3300ft
Tlak 1018
Zmeniť No Significant change. Runway 15: Damp, 51-100% contamination with <1mm, friction coefficient 0.55.
Nespracované UWWW 211630Z 07005MPS 9999 SCT033 10/03 Q1018 R15/190055 NOSIG RMK QFE752/1002

VFR

10°C / 3°C

[Viac]
Vietor 70º variable 060º to 120º 10kt
Viditeľnosť >10km
Počasie -
Oblaky Scattered Clouds 3300ft
Tlak 1018
Zmeniť No Significant change. Runway 15: Damp, 51-100% contamination with <1mm, friction coefficient 0.55.
Nespracované UWWW 211600Z 07005MPS 060V120 9999 SCT033 10/03 Q1018 R15/190055 NOSIG RMK QFE752/1003

VFR

10°C / 3°C

[Viac]
Vietor 80º 10kt
Viditeľnosť >10km
Počasie -
Oblaky Scattered Clouds 3300ft
Tlak 1018
Zmeniť No Significant change. Runway 15: Damp, 51-100% contamination with <1mm, friction coefficient 0.55.
Nespracované UWWW 211530Z 08005MPS 9999 SCT033 10/03 Q1018 R15/190055 NOSIG RMK QFE752/1003

VFR

10°C / 3°C

[Viac]
Vietor 70º 12kt
Viditeľnosť >10km
Počasie Light Rain 1.00mm precipitation
Oblaky Vertical Visibility of 0ft.
Tlak 1018
Zmeniť No Significant change. Runway 15: Damp, 51-100% contamination with <1mm, friction coefficient 0.55.
Nespracované UWWW 211500Z 07006MPS 9999 -RA SCT033 10/03 Q1018 R15/190055 NOSIG RMK QFE752/1003

VFR

11°C / 3°C

[Viac]
Vietor 80º 10kt
Viditeľnosť >10km
Počasie -
Oblaky Scattered Clouds 3300ft
Tlak 1018
Zmeniť No Significant change. Runway 15: Damp, 51-100% contamination with <1mm, friction coefficient 0.55.
Nespracované UWWW 211430Z 08005MPS 9999 SCT033 11/03 Q1018 R15/190055 NOSIG RMK QFE752/1003

Správy TAF pre lokalitu 53.5°S 50.15°V (UWWW)

From till


Maximum Temperature 14ºC on . Minimum Temperature 8ºC on .
From till Wind 140º 12kt. Gust 25kt. Visibility 6000m. Light Rain . Broken Clouds 1600ft.
Temporarly from till Visibility 997.791m. Showers Rain Mist . Broken Clouds 300ft. Broken Clouds 1100ft.
Becoming from till Wind 100º 6kt. Gust 17kt. Visibility 6000m. Light Rain . Broken Clouds 1600ft.

Nespracované: TAF UWWW 220156Z 2203/2303 14006G13MPS 6000 -RA BKN016 TX14/2210Z TN08/2302Z TEMPO 2203/2216 1000 SHRA BR BKN003 BKN011CB BECMG 2216/2218 10003G09MPS

Aktuálne satelitné snímky a snímky zrážok pre lokalitu 53.5°S 50.15°V

Značka polohy je umiestnená na53.5°S 50.15°V. [Viac]

Satelitné snímky zhotovované v reálnom čase využívajú viditeľné svetlo počas dňa a infračervené žiarenie počas noci. Vzhľadom na to, že infračervené žiarenie zisťuje teplotné rozdiely, snímka v noci nie je tmavá. Nízke oblaky a hmlu je, žiaľ, ťažké odlíšiť od prízemných teplôt, preto môžu byť počas noci takmer neviditeľné. Meteosat satelitné snímky pre Európu sú aktualizované v reálnom čase každých 5 minút. Snímky z GOES-16/GOES-17 (Severná a Južná Amerika) a Himawari (Ázia) sú aktualizované každých 10 minút.

Copyright 2021 EUMETSAT / meteoblue. / Copyright 2021 meteoblue

Radar a krátkodobá predpoveď zrážok pre 53.5°S 50.15°V

Mrholenie
Slabý
Mierne
Ťažké
Veľmi ťažké
Krúpy

Značka polohy je umiestnená na 53.5°S 50.15°V. Táto animácia ukazuje zrážky pozorované radarom za poslednú hodinu a tiež 1h predpoveď. Mrholenie alebo slabé sneženie môže byť pre radar neviditeľné. Intenzita zrážok je farebne označená od svetlomodrej po oranžovú.